Regional Weather Roundup
Issued by NWS

Home | Current Version | Previous Version | Text Only | Print | Product List | Glossary On
Versions: 1 2 3 4 5 6 7 8 9 10 11 12 13 14 15 16 17 18 19 20 21 22 23 24 25 26 27 28 29 30 31 32 33 34 35 36 37 38 39 40 41 42 43 44 45 46 47 48 49 50
000
ASUS42 KTBW 310810
RWRFL
FLORIDA REGIONAL WEATHER ROUNDUP
NATIONAL WEATHER SERVICE TAMPA BAY RUSKIN FL
300 AM EST SAT JAN 31 2015

NOTE: "FAIR" INDICATES FEW OR NO CLOUDS BELOW 12,000 FEET WITH NO
SIGNIFICANT WEATHER AND/OR OBSTRUCTIONS TO VISIBILITY.


FLZ001>010-012>015-112-114-115-310900-
PANHANDLE FLORIDA

CITY           SKY/WX    TMP DP  RH WIND       PRES   REMARKS
PENSACOLA      PTCLDY    44  28  53 NE10      30.31F WCI  39
PENSACOLA NAS  PTCLDY    44  30  57 NE12      30.31F WCI  38
MILTON NAS     PTCLDY    39  27  62 VRB5      30.32F WCI  36
CRESTVIEW      PTCLDY    36  29  75 N5        30.34S WCI  32
DUKE FIELD     FAIR      37  28  69 N3        30.31F
VALPARAISO     PTCLDY    39  28  64 N6        30.31S WCI  35
MARY ESTHER    CLEAR     39  28  63 N8        30.31S WCI  34
TRI COUNTY     FAIR      36  33  89 CALM      30.34R
PANAMA CITY    FAIR      41  30  65 N8        30.30S WCI  36
TYNDALL AFB    PTCLDY    45  30  56 NE9       30.31S WCI  40
APALACHICOLA   PTCLDY    45  31  58 NE6       30.29S WCI  42

STATION/POSITION SKY/WX   TEMP    WIND        PRES    WAVE   SWELL
                          AIR SEA DIR/SP/G            HT/PER HT/PER
                          (F)     (DEG/KT/KT) (MB)    (FT/S) (FT/S)
30.1N   87.6W              53 62   40/ 17/ 21 1025.4R   3/ 4
29.2N   88.2W              59 68   60/ 16/ 19 1025.5F   4/ 5
28.7N   86.0W              60 69   60/ 17/ 21 1024.7F   4/ 5
PANAMA CITY BEAC           44 60   20/  9/ 12 1025.7S
CAPE SAN BLAS    NOT AVBL
TOWER C                    53      50/ 20/ 22 1025.1F
28.5N   84.5W              59 67   50/ 17/ 19 1024.1F   5/ 6

$$
FLZ011-016>038-118-127-128-134-139-239-310900-
NORTH FLORIDA

CITY           SKY/WX    TMP DP  RH WIND       PRES   REMARKS
MARIANNA       PTCLDY    40  29  64 N5        30.31F WCI  37
TALLAHASSEE    PTCLDY    32  26  78 CALM      30.30S
PERRY          PTCLDY    36  32  87 CALM      30.30S
CROSS CITY       N/A     37  31  78 N5        30.28F WCI  33
LAKE CITY      FAIR      37  32  81 N3        30.28S
GAINESVILLE    PTCLDY    41  32  70 N7        30.28S WCI  36
MAYPORT NAS      N/A     45  34  65 MISG      30.28R
JACKSONVILLE   MOCLDY    40  33  76 N6        30.29R WCI  36
JAX NAS        MOCLDY    51  31  46 N14       30.29R
JAX CRAIG      PTCLDY    45  30  55 N7        30.28S WCI  41
JAX CECIL      PTCLDY    32  32 100 CALM      30.29S
FERNANDINA BEA FAIR      46  36  66 N6        30.27S WCI  43
ST AUGUSTINE   CLEAR     44  36  73 NW9       30.28S WCI  39

STATION/POSITION SKY/WX   TEMP    WIND        PRES    WAVE   SWELL
                          AIR SEA DIR/SP/G            HT/PER HT/PER
                          (F)     (DEG/KT/KT) (MB)    (FT/S) (FT/S)
SHELL POINT                44     360/  3/  4   N/A
KEATON BEACH               40      30/  6/  7 1025.7F
CEDAR KEY                  48      30/  5/  6 1025.7S
FERNANDINA                 47 55   10/  9/ 13 1024.9R
30.7N   81.3W                 56                N/A     3/ 4
MAYPORT                    44 57  340/  6/  8 1025.2S
31.4N   80.9W              51 54   30/ 16/ 19 1025.3R   3/ 5
ST AUGUSTINE               55      10/ 17/ 19 1025.1F

$$
FLZ040-043>046-052-053-057-058-063-144-310900-
INTERIOR CENTRAL FLORIDA

CITY           SKY/WX    TMP DP  RH WIND       PRES   REMARKS
OCALA          PTCLDY    39  30  70 CALM      30.27S
THE VILLAGES     N/A     45  34  65 NW5       30.16F WCI  42
LEESBURG       PTCLDY    45  33  63 N6        30.26F WCI  42
SANFORD        PTCLDY    50  37  61 N6        30.24F
ORLANDO EXEC   PTCLDY    51  36  56 N7        30.23F
ORLANDO INTL   MOCLDY    48  41  76 N6        30.24F
WINTER HAVEN   PTCLDY    50  35  56 N9        30.25S
LAKELAND       PTCLDY    46  36  66 N5        30.24F WCI  44
BARTOW         FAIR      52  36  54 N10       30.24S
OKEECHOBEE     PTCLDY    48  46  93 N6        30.21S

$$
FLZ041-047-054-059-064-141-147-310900-
EAST CENTRAL FLORIDA

CITY           SKY/WX    TMP DP  RH WIND       PRES   REMARKS
DAYTONA BEACH  PTCLDY    47  37  68 N5        30.24F WCI  45
DELAND           N/A    N/A N/A N/A NW6       30.25F
JFK SPACE CTR  CLEAR     56  45  66 NE8       30.21F
CAPE CANAVERAL CLEAR     58  45  63 N8        30.20F
PATRICK AFB    PTCLDY    56  49  74 N7        30.21F
MELBOURNE      PTCLDY    47  43  86 NW7       30.21F WCI  44
VERO BEACH     PTCLDY    59  45  59 N9        30.20S
FT PIERCE      PTCLDY    59  45  59 N7        30.19S
STUART         PTCLDY    61  48  63 N7        30.19S

STATION/POSITION SKY/WX   TEMP    WIND        PRES    WAVE   SWELL
                          AIR SEA DIR/SP/G            HT/PER HT/PER
                          (F)     (DEG/KT/KT) (MB)    (FT/S) (FT/S)
28.5N   80.2W              64 72  360/ 16/ 19 1022.5F
28.9N   78.5W              63 73  360/ 19/ 25 1021.9F   6/ 7   2/11
TRIDENT PIER     NOT AVBL
28.4N   80.5W                 62                N/A     3/ 5
27.6N   80.2W                 66                N/A     5/ 5

$$
FLZ050-056-061-142-242-148-248-149-249-151-251-155-255-
160-260-310900-
WEST CENTRAL FLORIDA

CITY           SKY/WX    TMP DP  RH WIND       PRES   REMARKS
CRYSTAL RIVER  FAIR      45  32  61 NE3       30.27S
INVERNESS      FAIR      45  34  65 N5        30.27S WCI  42
BROOKSVILLE    PTCLDY    42  33  70 N5        30.26F WCI  39
ZEPHYRHILLS    FAIR      41  36  81 N6        30.26S WCI  37
CLEARWATER     CLEAR     53  39  59 NE13G21   30.24F
TAMPA INTL     CLEAR     51  34  52 NE9       30.24F
TAMPA EXEC     CLEAR     46  37  71 N5        30.25F WCI  44
PLANT CITY       N/A    N/A N/A N/A MISG        N/A
MACDILL AFB    PTCLDY    50  35  55 NE14      30.23F
PETER O KNIGHT CLEAR     52  36  54 NE13G18   30.24F
ST PETERSBURG  PTCLDY    55  39  54 NE16      30.23S
SARASOTA       PTCLDY    51  38  60 NE8       30.21F
VENICE         FAIR      52  45  76 NE10      30.22S

STATION/POSITION SKY/WX   TEMP    WIND        PRES    WAVE   SWELL
                          AIR SEA DIR/SP/G            HT/PER HT/PER
                          (F)     (DEG/KT/KT) (MB)    (FT/S) (FT/S)
CEDAR KEY                  48      30/  5/  6 1025.7S
28.5N   84.5W              59 67   50/ 17/ 19 1024.1F   5/ 6
27.3N   84.3W                 72                N/A     6/ 7
CLEARWATER BEACH           52 61   40/  9/ 13 1023.8F
MIDDLE TAMPA BAY           56      60/ 21/ 25 1023.7F
VENICE                     53 63   30/  9/ 13 1022.9R

$$
FLZ066-069-070-075>078-162-262-165-265-310900-
SOUTHWEST FLORIDA AND KEYS

CITY           SKY/WX    TMP DP  RH WIND       PRES   REMARKS
PUNTA GORDA    PTCLDY    50  49  96 N8        30.22S
FT MYERS       PTCLDY    54  51  90 NE9       30.19S
SOUTHWEST INTL PTCLDY    55  51  86 NE7       30.19F FOG
NAPLES         PTCLDY    59  53  80 NE9       30.17F
MARCO ISLAND   MOSUNNY  N/A N/A N/A NE9       30.16S
IMMOKALEE      SUNNY    N/A N/A N/A CALM      30.20R
MARATHON       CLEAR     64  61  90 N12       30.14F
KEY WEST NAS   CLEAR     66  60  81 N13       30.15F
KEY WEST INTL  CLEAR     65  61  87 N10       30.15F

STATION/POSITION SKY/WX   TEMP    WIND        PRES    WAVE   SWELL
                          AIR SEA DIR/SP/G            HT/PER HT/PER
                          (F)     (DEG/KT/KT) (MB)    (FT/S) (FT/S)
VENICE                     53 63   30/  9/ 13 1022.9R
NAPLES                     59      40/  7/ 11 1022.1F
26.0N   85.6W              67 73   50/ 16/ 19 1022.1F   4/ 5
DRY TORTUGAS               69      20/ 15/ 16 1021.1F
NW FL BAY                  63      30/ 11/ 14 1021.5F
SAND KEY                   67      30/ 18/ 21 1020.6F
SOMBRERO KEY               65      20/ 17/ 18 1020.9F
LONG KEY                   64 66   10/ 15/ 16 1021.6F
MOLASSES REEF              65 75  360/ 14/ 14 1020.0F

$$
FLZ067-068-071>074-168-172>174-310900-
SOUTHEAST FLORIDA

CITY           SKY/WX    TMP DP  RH WIND       PRES   REMARKS
W PALM BEACH   PTCLDY    61  46  57 N9        30.15S
FT LAUDER-EXEC PTCLDY    63  52  67 N6        30.15S
FT LAUDERDALE  PTCLDY    62  53  72 N8        30.14F
POMPANO BEACH  PTCLDY    65  49  56 N8        30.15F
PEMBROKE PINES MOCLDY    62  55  77 N9        30.16F
OPA LOCKA      MOCLDY    62  55  77 N9        30.15F
MIAMI          MOCLDY    63  55  75 N6        30.15F
WEST KENDALL   CLEAR     59  56  89 N6        30.15F
HOMESTEAD      PTCLDY    59  56  89 NW8       30.14F

STATION/POSITION SKY/WX   TEMP    WIND        PRES    WAVE   SWELL
                          AIR SEA DIR/SP/G            HT/PER HT/PER
                          (F)     (DEG/KT/KT) (MB)    (FT/S) (FT/S)
PORT EVERGLADES            65     320/  7/ 12 1020.5
VIRGINIA KEY               64 68  360/  6/ 10 1020.9F
LAKE WORTH                 65 74  320/ 10/ 14 1020.7F
SETTLEMENT POINT           67      20/ 17/ 19 1021.6S

$$



USA.gov is the U.S. government's official web portal to all federal, state and local government web resources and services.